TimeMST,TemperatureF,Dew PointF,Humidity,Sea Level PressureIn,VisibilityMPH,Wind Direction,Wind SpeedMPH,Gust SpeedMPH,PrecipitationIn,Events,Conditions,WindDirDegrees,DateUTC
12:53 AM,28.0,24.1,85,29.93,10.0,West,3.5,-,N/A,,Clear,280,2012-12-07 07:53:00
1:53 AM,30.9,25.0,79,29.92,10.0,Calm,Calm,-,N/A,,Clear,0,2012-12-07 08:53:00
2:53 AM,28.0,24.1,85,29.94,10.0,NNW,4.6,-,N/A,,Clear,340,2012-12-07 09:53:00
3:53 AM,27.0,21.0,78,29.94,10.0,West,5.8,-,N/A,,Clear,270,2012-12-07 10:53:00
4:53 AM,27.0,21.0,78,29.96,10.0,West,4.6,-,N/A,,Clear,280,2012-12-07 11:53:00
5:53 AM,27.0,19.9,75,30.00,10.0,West,3.5,-,N/A,,Clear,270,2012-12-07 12:53:00
6:53 AM,26.1,19.9,78,30.02,10.0,Calm,Calm,-,N/A,,Clear,0,2012-12-07 13:53:00
7:53 AM,25.0,19.0,78,30.03,10.0,WNW,5.8,-,N/A,,Clear,300,2012-12-07 14:53:00
8:53 AM,33.1,24.1,70,30.03,10.0,Calm,Calm,-,N/A,,Clear,0,2012-12-07 15:53:00
9:53 AM,39.9,26.1,58,30.02,10.0,Calm,Calm,-,N/A,,Clear,0,2012-12-07 16:53:00
10:53 AM,42.1,27.0,55,30.01,10.0,Calm,Calm,-,N/A,,Clear,0,2012-12-07 17:53:00
11:53 AM,42.1,27.0,55,29.99,10.0,SE,3.5,-,N/A,,Clear,130,2012-12-07 18:53:00
12:53 PM,44.1,27.0,51,29.98,10.0,Calm,Calm,-,N/A,,Clear,0,2012-12-07 19:53:00
1:53 PM,45.0,24.1,44,29.95,10.0,Calm,Calm,-,N/A,,Overcast,0,2012-12-07 20:53:00
2:53 PM,45.0,19.9,37,29.94,10.0,Variable,3.5,-,N/A,,Overcast,0,2012-12-07 21:53:00
3:53 PM,44.1,23.0,43,29.96,10.0,North,8.1,-,N/A,,Scattered Clouds,350,2012-12-07 22:53:00
4:53 PM,41.0,23.0,49,29.98,10.0,WSW,3.5,-,N/A,,Clear,240,2012-12-07 23:53:00
5:53 PM,37.0,16.0,42,29.99,10.0,WSW,8.1,-,N/A,,Clear,240,2012-12-08 00:53:00
6:53 PM,35.1,14.0,42,30.01,10.0,West,4.6,-,N/A,,Clear,270,2012-12-08 01:53:00
7:53 PM,30.9,17.1,57,30.04,10.0,Calm,Calm,-,N/A,,Clear,0,2012-12-08 02:53:00
8:53 PM,30.0,16.0,56,30.01,10.0,East,4.6,-,N/A,,Clear,80,2012-12-08 03:53:00
9:53 PM,26.1,16.0,66,29.99,10.0,Calm,Calm,-,N/A,,Clear,0,2012-12-08 04:53:00
10:53 PM,27.0,16.0,63,29.97,10.0,NNW,6.9,-,N/A,,Clear,340,2012-12-08 05:53:00
11:53 PM,28.0,16.0,61,29.96,10.0,North,4.6,-,N/A,,Clear,350,2012-12-08 06:53:00